Location: Rowland
(34.5359°N, 79.2929°W)
Time: 14:33:48
(UTC+00:00)

Transit 4A - Pass Details

Date: 07 October 2022
Orbit: 871 x 972 km, 66.8° (Epoch: 29 November)

Event Time Altitude Azimuth Distance (km) Brightness Sun altitude
Rises 02:14:05 0° 213° (SSW) 3,616 - -41.0°
Reaches altitude 10° 02:16:40 10° 216° (SW) 2,661 - -41.5°
Maximum altitude 02:22:49 66° 298° (WNW) 1,011 - -42.6°
Drops below altitude 10° 02:28:51 10° 20° (NNE) 2,604 - -43.7°
Sets 02:31:22 0° 24° (NNE) 3,534 - -44.1°
